When you browse on this site, cookies collect data to enhance your experience and personalize the content and advertising you see.
Visit our Privacy Policy to learn more. By continuing to use the site, you agree to this use of cookies and data.
  • en Suisse
  • Liste des pays
  • À 7 jours
  • Température de l'eau
  • Carte satellitaire
  • Carte météo
  • Widgets météo
  • user-avatar
    Se connecter

    Météo par heure à Eghegnadzor

    Ce jour, 26 Juin, Mercredi

    Heure Température Précipitation Vent Pression Humidité
    00:00 +21°C° 0 mm 2 m/s 654 mmHg 66%
    01:00 +21°C° 0 mm 2 m/s 654 mmHg 66%
    02:00 +21°C° 0 mm 2 m/s 654 mmHg 66%
    03:00 +21°C° 0 mm 2 m/s 654 mmHg 65%
    04:00 +21°C° 0 mm 2 m/s 655 mmHg 63%
    05:00 +23°C° 0 mm 1 m/s 655 mmHg 62%
    06:00 +24°C° 0 mm 1 m/s 656 mmHg 60%
    07:00 +26°C° 0.1 mm 1 m/s 656 mmHg 53%
    08:00 +28°C° 0.1 mm 1 m/s 656 mmHg 47%
    09:00 +29°C° 0.1 mm 1 m/s 657 mmHg 41%
    10:00 +30°C° 0.1 mm 1 m/s 657 mmHg 39%
    11:00 +31°C° 0.1 mm 1 m/s 657 mmHg 37%
    12:00 +32°C° 0.1 mm 2 m/s 657 mmHg 35%
    13:00 +32°C° 0.1 mm 2 m/s 656 mmHg 37%
    14:00 +31°C° 0.1 mm 2 m/s 656 mmHg 39%
    15:00 +31°C° 0.1 mm 2 m/s 655 mmHg 41%
    16:00 +31°C° 0.2 mm 2 m/s 655 mmHg 43%
    17:00 +30°C° 0.2 mm 2 m/s 655 mmHg 45%
    18:00 +30°C° 0.2 mm 3 m/s 655 mmHg 47%
    19:00 +27°C° 1 mm 3 m/s 654 mmHg 56%
    20:00 +25°C° 1 mm 3 m/s 654 mmHg 65%
    21:00 +22°C° 1 mm 3 m/s 654 mmHg 74%
    22:00 +21°C° 0 mm 3 m/s 654 mmHg 72%
    23:00 +21°C° 0 mm 2 m/s 653 mmHg 69%

    Demain, 27 Juin, Jeudi

    Heure Température Précipitation Vent Pression Humidité
    00:00 +22°C° 0 mm 1 m/s 653 mmHg 66%
    01:00 +21°C° 0.1 mm 1 m/s 653 mmHg 67%
    02:00 +20°C° 0.1 mm 2 m/s 653 mmHg 67%
    03:00 +20°C° 0.1 mm 2 m/s 653 mmHg 68%
    04:00 +21°C° 0.2 mm 1 m/s 653 mmHg 67%
    05:00 +22°C° 0.2 mm 1 m/s 653 mmHg 66%
    06:00 +23°C° 0.2 mm 1 m/s 654 mmHg 65%
    07:00 +24°C° 0.2 mm 1 m/s 654 mmHg 59%
    08:00 +26°C° 0.2 mm 1 m/s 654 mmHg 54%
    09:00 +27°C° 0.2 mm 1 m/s 654 mmHg 48%
    10:00 +28°C° 0.4 mm 1 m/s 654 mmHg 45%
    11:00 +29°C° 0.4 mm 2 m/s 654 mmHg 43%
    12:00 +30°C° 0.4 mm 2 m/s 654 mmHg 40%
    13:00 +31°C° 0.3 mm 2 m/s 653 mmHg 39%
    14:00 +31°C° 0.3 mm 2 m/s 653 mmHg 39%
    15:00 +31°C° 0.3 mm 2 m/s 653 mmHg 38%
    16:00 +31°C° 0.2 mm 2 m/s 652 mmHg 41%
    17:00 +30°C° 0.2 mm 2 m/s 652 mmHg 44%
    18:00 +29°C° 0.2 mm 2 m/s 652 mmHg 47%
    19:00 +27°C° 0.6 mm 2 m/s 652 mmHg 54%
    20:00 +25°C° 0.6 mm 2 m/s 651 mmHg 60%
    21:00 +23°C° 0.6 mm 2 m/s 651 mmHg 67%
    22:00 +21°C° 0.2 mm 2 m/s 651 mmHg 69%
    23:00 +21°C° 0.2 mm 2 m/s 650 mmHg 70%

    Après-demain, 28 Juin, Vendredi

    Heure Température Précipitation Vent Pression Humidité
    00:00 +20°C° 0.2 mm 2 m/s 650 mmHg 71%
    01:00 +21°C° 0.1 mm 1 m/s 650 mmHg 72%
    02:00 +20°C° 0.1 mm 1 m/s 649 mmHg 73%
    03:00 +20°C° 0.1 mm 1 m/s 649 mmHg 74%
    04:00 +21°C° 0.2 mm 1 m/s 649 mmHg 72%
    05:00 +21°C° 0.2 mm 1 m/s 649 mmHg 71%
    06:00 +22°C° 0.2 mm 1 m/s 650 mmHg 69%
    07:00 +24°C° 0.2 mm 1 m/s 650 mmHg 63%
    08:00 +25°C° 0.2 mm 1 m/s 650 mmHg 57%
    09:00 +27°C° 0.2 mm 1 m/s 650 mmHg 50%
    10:00 +28°C° 0.5 mm 1 m/s 650 mmHg 48%
    11:00 +29°C° 0.5 mm 2 m/s 649 mmHg 45%
    12:00 +30°C° 0.5 mm 2 m/s 649 mmHg 42%
    13:00 +30°C° 0.6 mm 3 m/s 649 mmHg 41%
    14:00 +31°C° 0.6 mm 3 m/s 649 mmHg 39%
    15:00 +32°C° 0.6 mm 4 m/s 648 mmHg 37%
    16:00 +30°C° 0.4 mm 3 m/s 648 mmHg 42%
    17:00 +29°C° 0.4 mm 2 m/s 648 mmHg 46%
    18:00 +28°C° 0.4 mm 2 m/s 648 mmHg 50%
    19:00 +26°C° 0.5 mm 2 m/s 648 mmHg 59%
    20:00 +24°C° 0.5 mm 2 m/s 648 mmHg 69%
    21:00 +21°C° 0.5 mm 2 m/s 648 mmHg 78%
    22:00 +20°C° 0.2 mm 2 m/s 647 mmHg 77%
    23:00 +21°C° 0.2 mm 1 m/s 647 mmHg 77%

    29 Juin, Samedi

    Heure Température Précipitation Vent Pression Humidité
    00:00 +21°C° 0.2 mm 1 m/s 647 mmHg 76%
    01:00 +21°C° 0 mm 1 m/s 647 mmHg 77%
    02:00 +20°C° 0 mm 1 m/s 646 mmHg 78%
    03:00 +17°C° 0 mm 0 m/s 646 mmHg 79%
    04:00 +18°C° 0.2 mm 0 m/s 646 mmHg 76%
    05:00 +21°C° 0.2 mm 1 m/s 647 mmHg 73%
    06:00 +22°C° 0.2 mm 1 m/s 647 mmHg 70%
    07:00 +23°C° 0.4 mm 1 m/s 647 mmHg 66%
    08:00 +24°C° 0.4 mm 1 m/s 647 mmHg 63%
    09:00 +26°C° 0.4 mm 2 m/s 647 mmHg 59%
    10:00 +27°C° 0.7 mm 2 m/s 647 mmHg 54%
    11:00 +28°C° 0.7 mm 2 m/s 647 mmHg 50%
    12:00 +29°C° 0.7 mm 3 m/s 648 mmHg 46%
    13:00 +30°C° 0.2 mm 3 m/s 647 mmHg 43%
    14:00 +30°C° 0.2 mm 3 m/s 647 mmHg 40%
    15:00 +31°C° 0.2 mm 3 m/s 647 mmHg 37%
    16:00 +30°C° 0.2 mm 3 m/s 647 mmHg 42%
    17:00 +29°C° 0.2 mm 3 m/s 647 mmHg 47%
    18:00 +28°C° 0.2 mm 4 m/s 646 mmHg 52%
    19:00 +26°C° 0.4 mm 3 m/s 647 mmHg 59%
    20:00 +24°C° 0.4 mm 3 m/s 647 mmHg 66%
    21:00 +21°C° 0.4 mm 3 m/s 647 mmHg 73%
    22:00 +21°C° 0.7 mm 3 m/s 647 mmHg 75%
    23:00 +20°C° 0.7 mm 2 m/s 648 mmHg 77%

    30 Juin, Dimanche

    Heure Température Précipitation Vent Pression Humidité
    00:00 +20°C° 0.7 mm 2 m/s 648 mmHg 79%
    01:00 +19°C° 0.3 mm 2 m/s 647 mmHg 80%
    02:00 +20°C° 0.3 mm 1 m/s 647 mmHg 81%
    03:00 +19°C° 0.3 mm 1 m/s 647 mmHg 81%
    04:00 +20°C° 0 mm 1 m/s 647 mmHg 79%
    05:00 +18°C° 0 mm 0 m/s 648 mmHg 76%
    06:00 +19°C° 0 mm 0 m/s 648 mmHg 73%
    07:00 +22°C° 0.2 mm 1 m/s 648 mmHg 69%
    08:00 +23°C° 0.2 mm 1 m/s 648 mmHg 65%
    09:00 +25°C° 0.2 mm 2 m/s 649 mmHg 61%
    10:00 +26°C° 0.3 mm 2 m/s 649 mmHg 56%
    11:00 +27°C° 0.3 mm 3 m/s 649 mmHg 51%
    12:00 +28°C° 0.3 mm 3 m/s 649 mmHg 47%
    13:00 +28°C° 0.1 mm 3 m/s 649 mmHg 45%
    14:00 +29°C° 0.1 mm 4 m/s 648 mmHg 43%
    15:00 +30°C° 0.1 mm 4 m/s 648 mmHg 41%
    16:00 +29°C° 0.3 mm 4 m/s 648 mmHg 44%
    17:00 +28°C° 0.3 mm 3 m/s 648 mmHg 48%
    18:00 +27°C° 0.3 mm 3 m/s 648 mmHg 51%
    19:00 +25°C° 0.4 mm 3 m/s 648 mmHg 57%
    20:00 +24°C° 0.4 mm 3 m/s 648 mmHg 63%
    21:00 +21°C° 0.4 mm 3 m/s 648 mmHg 69%
    22:00 +20°C° 0.5 mm 2 m/s 648 mmHg 73%
    23:00 +19°C° 0.5 mm 2 m/s 648 mmHg 78%

    1 Juillet, Lundi

    Heure Température Précipitation Vent Pression Humidité
    00:00 +18°C° 0.5 mm 2 m/s 648 mmHg 82%
    01:00 +18°C° 0.4 mm 2 m/s 648 mmHg 84%
    02:00 +18°C° 0.4 mm 1 m/s 648 mmHg 85%
    03:00 +18°C° 0.4 mm 1 m/s 648 mmHg 87%
    04:00 +18°C° 0.4 mm 1 m/s 648 mmHg 85%
    05:00 +19°C° 0.4 mm 1 m/s 648 mmHg 84%
    06:00 +19°C° 0.4 mm 1 m/s 649 mmHg 82%
    07:00 +20°C° 0.5 mm 1 m/s 649 mmHg 78%
    08:00 +20°C° 0.5 mm 2 m/s 649 mmHg 74%
    09:00 +21°C° 0.5 mm 2 m/s 649 mmHg 69%
    10:00 +23°C° 0.6 mm 2 m/s 649 mmHg 67%
    11:00 +24°C° 0.6 mm 2 m/s 649 mmHg 64%
    12:00 +24°C° 0.6 mm 2 m/s 649 mmHg 62%
    13:00 +25°C° 0.6 mm 2 m/s 649 mmHg 59%
    14:00 +25°C° 0.6 mm 3 m/s 649 mmHg 57%
    15:00 +26°C° 0.6 mm 3 m/s 649 mmHg 54%
    16:00 +25°C° 0.5 mm 3 m/s 649 mmHg 56%
    17:00 +24°C° 0.5 mm 3 m/s 649 mmHg 57%
    18:00 +22°C° 0.5 mm 3 m/s 649 mmHg 59%
    19:00 +21°C° 0.2 mm 3 m/s 649 mmHg 64%
    20:00 +19°C° 0.2 mm 3 m/s 650 mmHg 69%
    21:00 +18°C° 0.2 mm 3 m/s 650 mmHg 74%
    22:00 +17°C° 0.1 mm 3 m/s 650 mmHg 74%
    23:00 +17°C° 0.1 mm 2 m/s 650 mmHg 75%
    Voir plus